Time,TemperatureF,DewpointF,PressureIn,WindDirection,WindDirectionDegrees,WindSpeedMPH,WindSpeedGustMPH,Humidity,HourlyPrecipIn,Conditions,Clouds,dailyrainin,SoftwareType,DateUTC
2013-03-05 00:08:00,51.5,47.0,30.19,NNW,330,0.0,0.0,84,0.00,,,0.00,weatherlink.com 1.10,2013-03-05 05:08:00,
2013-03-05 00:23:00,51.3,47.0,30.19,NNW,330,0.0,0.0,84,0.00,,,0.00,weatherlink.com 1.10,2013-03-05 05:23:00,
2013-03-05 00:38:00,51.0,46.0,30.18,NNW,330,0.0,0.0,84,0.00,,,0.00,weatherlink.com 1.10,2013-03-05 05:38:00,
2013-03-05 00:53:00,50.6,46.0,30.18,NNW,330,0.0,2.0,84,0.00,,,0.00,weatherlink.com 1.10,2013-03-05 05:53:00,
2013-03-05 01:08:00,50.2,46.0,30.17,NNW,330,1.0,3.0,85,0.00,,,0.00,weatherlink.com 1.10,2013-03-05 06:08:00,
2013-03-05 01:23:00,49.9,46.0,30.17,NNW,330,0.0,3.0,85,0.00,,,0.00,weatherlink.com 1.10,2013-03-05 06:23:00,
2013-03-05 01:38:00,49.9,46.0,30.16,NNW,330,0.0,2.0,86,0.00,,,0.00,weatherlink.com 1.10,2013-03-05 06:38:00,
2013-03-05 01:53:00,49.7,46.0,30.16,NNW,330,0.0,0.0,86,0.00,,,0.00,weatherlink.com 1.10,2013-03-05 06:53:00,
2013-03-05 02:08:00,49.4,45.0,30.16,NNW,330,0.0,0.0,86,0.00,,,0.00,weatherlink.com 1.10,2013-03-05 07:08:00,
2013-03-05 02:23:00,49.0,45.0,30.16,NNW,330,0.0,0.0,86,0.00,,,0.00,weatherlink.com 1.10,2013-03-05 07:23:00,
2013-03-05 02:38:00,48.7,45.0,30.15,NNW,330,0.0,3.0,86,0.00,,,0.00,weatherlink.com 1.10,2013-03-05 07:38:00,
2013-03-05 02:53:00,48.5,45.0,30.15,NNW,330,1.0,3.0,87,0.00,,,0.00,weatherlink.com 1.10,2013-03-05 07:53:00,
2013-03-05 03:08:00,48.5,45.0,30.15,NNW,330,2.0,4.0,87,0.00,,,0.00,weatherlink.com 1.10,2013-03-05 08:08:00,
2013-03-05 03:24:00,48.3,45.0,30.15,NNW,330,0.0,3.0,87,0.00,,,0.00,weatherlink.com 1.10,2013-03-05 08:24:00,
2013-03-05 03:39:00,48.1,44.0,30.15,NNW,330,0.0,1.0,86,0.00,,,0.00,weatherlink.com 1.10,2013-03-05 08:39:00,
2013-03-05 03:54:00,47.8,44.0,30.14,NNW,330,0.0,2.0,86,0.00,,,0.00,weatherlink.com 1.10,2013-03-05 08:54:00,
2013-03-05 04:09:00,47.7,44.0,30.15,NNW,330,1.0,3.0,86,0.00,,,0.00,weatherlink.com 1.10,2013-03-05 09:09:00,
2013-03-05 04:24:00,47.6,44.0,30.15,NNW,330,2.0,3.0,86,0.00,,,0.00,weatherlink.com 1.10,2013-03-05 09:24:00,
2013-03-05 04:39:00,47.4,43.0,30.15,NNW,330,2.0,3.0,86,0.00,,,0.00,weatherlink.com 1.10,2013-03-05 09:39:00,
2013-03-05 04:54:00,47.1,43.0,30.15,NNW,330,3.0,4.0,86,0.00,,,0.00,weatherlink.com 1.10,2013-03-05 09:54:00,
2013-03-05 05:09:00,46.8,43.0,30.15,NNW,330,0.0,3.0,87,0.00,,,0.00,weatherlink.com 1.10,2013-03-05 10:09:00,
2013-03-05 05:24:00,46.7,43.0,30.16,NNW,330,2.0,2.0,87,0.00,,,0.00,weatherlink.com 1.10,2013-03-05 10:24:00,
2013-03-05 05:39:00,46.5,43.0,30.17,NNW,330,1.0,3.0,87,0.00,,,0.00,weatherlink.com 1.10,2013-03-05 10:39:00,
2013-03-05 05:54:00,46.3,43.0,30.18,NNW,330,2.0,4.0,87,0.00,,,0.00,weatherlink.com 1.10,2013-03-05 10:54:00,
2013-03-05 06:09:00,46.1,43.0,30.18,NNW,330,3.0,3.0,87,0.00,,,0.00,weatherlink.com 1.10,2013-03-05 11:09:00,
2013-03-05 06:24:00,46.1,43.0,30.18,NNW,330,2.0,2.0,88,0.00,,,0.00,weatherlink.com 1.10,2013-03-05 11:24:00,
2013-03-05 06:39:00,46.1,43.0,30.18,NNW,330,1.0,3.0,88,0.00,,,0.00,weatherlink.com 1.10,2013-03-05 11:39:00,
2013-03-05 06:54:00,46.0,43.0,30.17,NNW,330,0.0,2.0,88,0.00,,,0.00,weatherlink.com 1.10,2013-03-05 11:54:00,
2013-03-05 07:09:00,46.1,43.0,30.17,NNW,330,0.0,2.0,88,0.00,,,0.00,weatherlink.com 1.10,2013-03-05 12:09:00,
2013-03-05 07:24:00,46.6,44.0,30.18,NNW,330,2.0,2.0,89,0.00,,,0.00,weatherlink.com 1.10,2013-03-05 12:24:00,
2013-03-05 07:39:00,48.0,45.0,30.18,NNW,330,1.0,3.0,90,0.00,,,0.00,weatherlink.com 1.10,2013-03-05 12:39:00,
2013-03-05 07:54:00,49.8,47.0,30.18,NNW,330,0.0,3.0,90,0.00,,,0.00,weatherlink.com 1.10,2013-03-05 12:54:00,
2013-03-05 08:09:00,51.6,49.0,30.18,NNW,330,0.0,3.0,91,0.00,,,0.00,weatherlink.com 1.10,2013-03-05 13:09:00,
2013-03-05 08:24:00,53.5,51.0,30.18,NE,42,1.0,5.0,90,0.00,,,0.00,weatherlink.com 1.10,2013-03-05 13:24:00,
2013-03-05 08:39:00,55.5,51.0,30.18,ESE,120,2.0,6.0,86,0.00,,,0.00,weatherlink.com 1.10,2013-03-05 13:39:00,
2013-03-05 08:54:00,57.8,52.0,30.18,SE,130,4.0,7.0,82,0.00,,,0.00,weatherlink.com 1.10,2013-03-05 13:54:00,
2013-03-05 09:09:00,60.2,53.0,30.18,ESE,120,4.0,7.0,78,0.00,,,0.00,weatherlink.com 1.10,2013-03-05 14:09:00,
2013-03-05 09:24:00,62.5,54.0,30.18,SE,125,7.0,11.0,74,0.00,,,0.00,weatherlink.com 1.10,2013-03-05 14:24:00,
2013-03-05 09:39:00,64.4,55.0,30.18,ENE,70,3.0,11.0,71,0.00,,,0.00,weatherlink.com 1.10,2013-03-05 14:39:00,
2013-03-05 09:54:00,66.0,56.0,30.18,ESE,116,3.0,10.0,70,0.00,,,0.00,weatherlink.com 1.10,2013-03-05 14:54:00,
2013-03-05 10:09:00,67.7,57.0,30.18,South,171,10.0,13.0,68,0.00,,,0.00,weatherlink.com 1.10,2013-03-05 15:09:00,
2013-03-05 10:25:00,68.7,57.0,30.17,SSE,151,7.0,15.0,67,0.00,,,0.00,weatherlink.com 1.10,2013-03-05 15:25:00,
2013-03-05 10:40:00,69.2,57.0,30.18,SE,133,4.0,13.0,66,0.00,,,0.00,weatherlink.com 1.10,2013-03-05 15:40:00,
2013-03-05 10:55:00,70.1,58.0,30.18,SSE,153,1.0,14.0,65,0.00,,,0.00,weatherlink.com 1.10,2013-03-05 15:55:00,
2013-03-05 11:10:00,71.1,58.0,30.18,WSW,245,9.0,13.0,64,0.00,,,0.00,weatherlink.com 1.10,2013-03-05 16:10:00,
2013-03-05 11:25:00,71.6,59.0,30.18,South,175,8.0,12.0,64,0.00,,,0.00,weatherlink.com 1.10,2013-03-05 16:25:00,
2013-03-05 11:40:00,72.0,59.0,30.17,WSW,256,7.0,12.0,64,0.00,,,0.00,weatherlink.com 1.10,2013-03-05 16:40:00,
2013-03-05 11:55:00,72.4,59.0,30.17,South,175,9.0,18.0,63,0.00,,,0.00,weatherlink.com 1.10,2013-03-05 16:55:00,
2013-03-05 12:10:00,72.4,59.0,30.17,South,189,6.0,14.0,63,0.00,,,0.00,weatherlink.com 1.10,2013-03-05 17:10:00,
2013-03-05 12:25:00,71.7,59.0,30.17,South,175,6.0,15.0,64,0.00,,,0.00,weatherlink.com 1.10,2013-03-05 17:25:00,
2013-03-05 12:55:00,72.3,59.0,30.16,SW,224,9.0,13.0,63,0.00,,,0.00,weatherlink.com 1.10,2013-03-05 17:55:00,
2013-03-05 13:10:00,72.2,59.0,30.15,SW,218,6.0,17.0,64,0.00,,,0.00,weatherlink.com 1.10,2013-03-05 18:10:00,
2013-03-05 13:25:00,72.4,59.0,30.14,SSW,195,10.0,16.0,62,0.00,,,0.00,weatherlink.com 1.10,2013-03-05 18:25:00,
2013-03-05 13:40:00,72.5,59.0,30.13,South,185,13.0,13.0,62,0.00,,,0.00,weatherlink.com 1.10,2013-03-05 18:40:00,
2013-03-05 13:55:00,72.5,59.0,30.13,SW,231,3.0,15.0,63,0.00,,,0.00,weatherlink.com 1.10,2013-03-05 18:55:00,
2013-03-05 14:10:00,72.5,59.0,30.13,SW,220,7.0,15.0,63,0.00,,,0.00,weatherlink.com 1.10,2013-03-05 19:10:00,
2013-03-05 14:26:00,72.4,59.0,30.12,SSW,212,11.0,17.0,63,0.00,,,0.00,weatherlink.com 1.10,2013-03-05 19:26:00,
2013-03-05 14:40:00,72.3,59.0,30.12,SW,220,7.0,18.0,63,0.00,,,0.00,weatherlink.com 1.10,2013-03-05 19:40:00,
2013-03-05 14:55:00,72.4,59.0,30.12,SSW,195,12.0,16.0,64,0.00,,,0.00,weatherlink.com 1.10,2013-03-05 19:55:00,
2013-03-05 15:10:00,72.3,59.0,30.12,South,185,7.0,14.0,64,0.00,,,0.00,weatherlink.com 1.10,2013-03-05 20:10:00,
2013-03-05 15:25:00,72.0,59.0,30.11,SW,222,11.0,18.0,64,0.00,,,0.00,weatherlink.com 1.10,2013-03-05 20:25:00,
2013-03-05 15:40:00,72.2,59.0,30.11,SSW,204,4.0,16.0,63,0.00,,,0.00,weatherlink.com 1.10,2013-03-05 20:40:00,
2013-03-05 15:55:00,72.1,59.0,30.11,South,189,9.0,15.0,64,0.00,,,0.00,weatherlink.com 1.10,2013-03-05 20:55:00,
2013-03-05 16:10:00,71.9,60.0,30.11,South,189,6.0,13.0,66,0.00,,,0.00,weatherlink.com 1.10,2013-03-05 21:10:00,
2013-03-05 16:25:00,72.1,60.0,30.11,SSW,199,9.0,14.0,65,0.00,,,0.00,weatherlink.com 1.10,2013-03-05 21:25:00,
2013-03-05 16:55:00,72.0,60.0,30.11,West,266,2.0,11.0,66,0.00,,,0.00,weatherlink.com 1.10,2013-03-05 21:55:00,
2013-03-05 17:10:00,71.8,60.0,30.11,SSW,198,6.0,13.0,66,0.00,,,0.00,weatherlink.com 1.10,2013-03-05 22:10:00,
2013-03-05 17:25:00,71.5,60.0,30.12,SSW,197,6.0,10.0,67,0.00,,,0.00,weatherlink.com 1.10,2013-03-05 22:25:00,
2013-03-05 17:40:00,71.7,61.0,30.12,SW,214,2.0,9.0,68,0.00,,,0.00,weatherlink.com 1.10,2013-03-05 22:40:00,
2013-03-05 17:55:00,71.4,60.0,30.12,WSW,246,5.0,11.0,68,0.00,,,0.00,weatherlink.com 1.10,2013-03-05 22:55:00,
2013-03-05 18:10:00,71.0,60.0,30.13,SSW,210,0.0,10.0,69,0.00,,,0.00,weatherlink.com 1.10,2013-03-05 23:10:00,
2013-03-05 18:25:00,70.1,60.0,30.13,West,270,7.0,7.0,71,0.00,,,0.00,weatherlink.com 1.10,2013-03-05 23:25:00,
2013-03-05 18:40:00,68.7,60.0,30.13,West,270,3.0,6.0,74,0.00,,,0.00,weatherlink.com 1.10,2013-03-05 23:40:00,
2013-03-05 18:55:00,67.9,60.0,30.13,West,270,1.0,3.0,75,0.00,,,0.00,weatherlink.com 1.10,2013-03-05 23:55:00,
2013-03-05 19:10:00,67.4,60.0,30.13,West,270,0.0,6.0,77,0.00,,,0.00,weatherlink.com 1.10,2013-03-06 00:10:00,
2013-03-05 19:25:00,67.2,60.0,30.13,West,270,0.0,3.0,78,0.00,,,0.00,weatherlink.com 1.10,2013-03-06 00:25:00,
2013-03-05 19:40:00,66.8,60.0,30.13,West,270,0.0,0.0,79,0.00,,,0.00,weatherlink.com 1.10,2013-03-06 00:40:00,
2013-03-05 19:55:00,66.5,60.0,30.13,West,270,1.0,3.0,80,0.00,,,0.00,weatherlink.com 1.10,2013-03-06 00:55:00,
2013-03-05 20:10:00,66.3,60.0,30.13,West,270,0.0,2.0,81,0.00,,,0.00,weatherlink.com 1.10,2013-03-06 01:10:00,
2013-03-05 20:25:00,66.1,60.0,30.12,West,270,1.0,2.0,80,0.00,,,0.00,weatherlink.com 1.10,2013-03-06 01:25:00,
2013-03-05 20:40:00,65.9,60.0,30.14,West,270,2.0,5.0,82,0.00,,,0.00,weatherlink.com 1.10,2013-03-06 01:40:00,
2013-03-05 20:55:00,65.6,60.0,30.13,West,268,2.0,6.0,82,0.00,,,0.00,weatherlink.com 1.10,2013-03-06 01:55:00,
2013-03-05 21:10:00,65.4,60.0,30.13,West,268,2.0,5.0,82,0.00,,,0.00,weatherlink.com 1.10,2013-03-06 02:10:00,
2013-03-05 21:25:00,65.1,60.0,30.12,West,268,0.0,3.0,83,0.00,,,0.00,weatherlink.com 1.10,2013-03-06 02:25:00,
2013-03-05 21:40:00,64.9,60.0,30.12,West,268,3.0,5.0,83,0.00,,,0.00,weatherlink.com 1.10,2013-03-06 02:40:00,
2013-03-05 21:55:00,64.7,60.0,30.12,West,268,3.0,5.0,84,0.00,,,0.00,weatherlink.com 1.10,2013-03-06 02:55:00,
2013-03-05 22:10:00,64.8,60.0,30.12,West,268,5.0,5.0,85,0.00,,,0.00,weatherlink.com 1.10,2013-03-06 03:10:00,
2013-03-05 22:25:00,64.9,60.0,30.12,West,260,2.0,4.0,84,0.00,,,0.00,weatherlink.com 1.10,2013-03-06 03:25:00,
2013-03-05 22:40:00,65.1,60.0,30.12,West,260,3.0,4.0,84,0.00,,,0.00,weatherlink.com 1.10,2013-03-06 03:40:00,
2013-03-05 22:55:00,65.4,61.0,30.12,West,260,3.0,5.0,84,0.00,,,0.00,weatherlink.com 1.10,2013-03-06 03:55:00,
2013-03-05 23:10:00,65.7,61.0,30.12,WSW,251,4.0,5.0,84,0.00,,,0.00,weatherlink.com 1.10,2013-03-06 04:10:00,
2013-03-05 23:25:00,65.8,61.0,30.11,WSW,239,7.0,9.0,84,0.00,,,0.00,weatherlink.com 1.10,2013-03-06 04:25:00,
2013-03-05 23:40:00,65.9,61.0,30.12,WSW,257,3.0,9.0,84,0.00,,,0.00,weatherlink.com 1.10,2013-03-06 04:40:00,
2013-03-05 23:55:00,66.0,61.0,30.11,SW,218,2.0,9.0,83,0.00,,,0.00,weatherlink.com 1.10,2013-03-06 04:55:00,